Content
SEND FEEDBACK

Daily
Averages
Monthly
Summary
United States of America

UKIAH, CALIFORNIA


Home > North America > United States > California
Elevation: 615 feet     Latitude: 39 08N     Longitude: 123 12W

WEATHER
 
SELECT A DAY
Number of Records: 217,181;   Date Range: 1/1/95 - 9/16/14
 
SHARE

PRINT THIS DATA

[ ← Previous Day ]
WEATHER ALMANAC - FEBRUARY 13, 2013
[ Next Day → ]
[ °C ]   °F
Weather ElementAverageHighLow
Temperature48.3 °F69.1 °F (3:56 pm)33.1 °F (6:56 am)
Dewpoint37.9 °F44.1 °F (4:56 pm)30.9 °F (6:56 am)
Humidity71.1 %92 % (2:56 am)36 % (3:56 pm)
Barometer30.29 in30.37 in (8:56 am)30.20 in (4:56 pm)
Wind Speed0.5 mph3.5 mph (7:56 am)
Weather ElementAverage
Visibility10 mi
Wind DirectionNNE (34.8 °)

Weather ElementTotal
Precipitation---
Heating Degree Days13.9 (Base 65)
Growing Degree Days1.1 (Base 50)
Averaged from 23 records on February 13, 2013
WEATHER CONDITIONS BREAKOUT
WIND DIRECTION BREAKOUT
WEATHER BY HOUR - FEBRUARY 13, 2013
[ °C ]   °F
Local TimeTemperatureDewpointHumidityBarometerVisibilityWind DirectionWind SpeedGust SpeedPrecipitationEventsConditions
1:56 AM37.9 °F34.0 °F86 %30.35 in10.0 miCalmClear
2:56 AM34.0 °F32.0 °F92 %30.35 in10.0 miCalmClear
3:56 AM35.1 °F32.0 °F89 %30.33 in10.0 miCalmClear
4:56 AM35.1 °F32.0 °F89 %30.34 in10.0 miCalmClear
5:56 AM34.0 °F32.0 °F92 %30.35 in10.0 miCalmClear
6:56 AM33.1 °F30.9 °F92 %30.35 in10.0 miCalmClear
7:56 AM35.1 °F33.1 °F92 %30.36 in10.0 miNNW (330°)3.5 mphClear
8:56 AM41.0 °F36.0 °F82 %30.37 in10.0 miCalmClear
9:56 AM46.9 °F39.0 °F74 %30.35 in10.0 miCalmClear
10:56 AM53.1 °F37.9 °F57 %30.35 in10.0 miCalmClear
11:56 AM55.9 °F37.0 °F49 %30.32 in10.0 miCalmClear
12:56 PM61.0 °F37.9 °F42 %30.28 in10.0 miCalmClear
1:56 PM66.0 °F39.9 °F38 %30.25 in10.0 miCalmClear
2:56 PM66.9 °F41.0 °F39 %30.23 in10.0 miCalmClear
3:56 PM69.1 °F41.0 °F36 %30.21 in10.0 miCalmClear
4:56 PM62.1 °F44.1 °F52 %30.20 in10.0 miWNW (290°)3.5 mphClear
5:56 PM57.9 °F43.0 °F58 %30.20 in10.0 miCalmClear
6:56 PM54.0 °F43.0 °F66 %30.22 in9.0 miCalmClear
7:56 PM51.1 °F43.0 °F74 %30.23 in10.0 miCalmClear
8:56 PM48.0 °F42.1 °F80 %30.24 in10.0 miCalmClear
9:56 PM45.0 °F41.0 °F86 %30.25 in10.0 miSouth (180°)3.5 mphClear
10:56 PM45.0 °F41.0 °F86 %30.25 in10.0 miCalmClear
11:56 PM44.1 °F39.9 °F85 %30.25 in10.0 miCalmClear
Hourly data recorded from KUKI, located miles away from Ukiah, California







STORIES FROM OUR PARTNERS